This is the latest recevied weather packets stored in our database for station/object VE2JJ-13. If no packets are shown the sender has not sent any weather packets the latest 10 day(s).
| Time | Temp. | Humidity | Pressure | Rain* | Wind** | Luminosity | Snow |
|---|---|---|---|---|---|---|---|
| 1778025959 | 17.78° C | 55% | 996.9 hPa | 0 mm | - | - | - |
| 1778023500 | 18.89° C | 54% | 995.9 hPa | 0 mm | - | - | - |
| 1778022268 | 18.89° C | 58% | 995.8 hPa | 0 mm | - | - | - |
| 1778021339 | 19.44° C | 58% | 995.4 hPa | 0 mm | - | - | - |
| 1778020711 | 19.44° C | 57% | 995 hPa | 0 mm | - | - | - |
| 1778020077 | 20° C | 57% | 995 hPa | 0 mm | - | - | - |
| 1778019748 | 20° C | 57% | 995 hPa | 0 mm | - | - | - |
| 1778017619 | 20.56° C | 58% | 994.4 hPa | 0 mm | - | - | - |
| 1778016688 | 20.56° C | 58% | 994 hPa | 0 mm | - | - | - |
| 1778016390 | 20.56° C | 58% | 994 hPa | 0 mm | - | - | - |
| 1778015789 | 21.11° C | 58% | 993.6 hPa | 0 mm | - | - | - |
| 1778015489 | 21.67° C | 56% | 993.4 hPa | 0 mm | - | - | - |
| 1778015190 | 21.67° C | 56% | 993.4 hPa | 0 mm | - | - | - |
| 1778014861 | 22.22° C | 55% | 993 hPa | 0 mm | - | - | - |
| 1778013300 | 22.78° C | 55% | 993 hPa | 0 mm | - | - | - |
| 1778012670 | 22.78° C | 55% | 992.8 hPa | 0 mm | - | - | - |
| 1778012367 | 22.78° C | 56% | 992.8 hPa | 0 mm | - | - | - |
| 1778011110 | 22.22° C | 57% | 992.9 hPa | 0 mm | - | - | - |
| 1778010214 | 21.67° C | 59% | 992.8 hPa | 0 mm | - | - | - |
| 1778009909 | 21.67° C | 59% | 992.7 hPa | 0 mm | - | - | - |
| 1778009608 | 21.67° C | 60% | 992.7 hPa | 0 mm | - | - | - |
| 1778009307 | 21.67° C | 60% | 992.7 hPa | 0 mm | - | - | - |
| 1778009008 | 21.11° C | 60% | 992.7 hPa | 0 mm | - | - | - |
| 1778008680 | 21.11° C | 60% | 992.7 hPa | 0 mm | - | - | - |
| 1778006819 | 22.22° C | 57% | 992.8 hPa | 0 mm | - | - | - |
* Rain latest hour (hover to see other rain measurements)
** Current wind speed in m/s (hover to see current wind gust speed)